Brookings, SD

9:53 PM CDT on September 20, 2017 (GMT -0500)
Brookings Municipal

Weather History for KBKX - January, 2013

Change the Weather History Date:

Saturday, January 5, 2013

  Actual Average Record
Temperature  
Mean Temperature 12 °F -  
Max Temperature 23 °F 21 °F 62 °F (2012)
Min Temperature 1 °F 6 °F -15 °F (2017)
Degree Days  
Heating Degree Days 53    
Moisture  
Dew Point 8 °F    
Average Humidity 86    
Maximum Humidity 100    
Minimum Humidity 52    
Precipitation  
Precipitation 0.00 in - - ()
Sea Level Pressure  
Sea Level Pressure 29.99 in    
Wind  
Wind Speed 7 mph (WNW)    
Max Wind Speed 24 mph    
Max Gust Speed 28 mph    
Visibility 10 miles    
Events      
Averages and records for this station are not official NWS values.
T = Trace of Precipitation, MM = Missing Value Source: NWS Daily Summary

Daily Weather History Graph

Daily Weather History Graph

Search for Another Location

Airport or City:

Trip Planner

Search our weather history database for the weather conditions in past years. The results will help you decide how hot, cold, wet, or windy it might be!

Date:

Astronomy

Jan. 05, 2013 Rise Set
Actual Time 8:02 AM CST 5:03 PM CST
Civil Twilight 7:30 AM CST 5:35 PM CST
Nautical Twilight 6:53 AM CST 6:12 PM CST
Astronomical Twilight 6:18 AM CST 6:47 PM CST
Moon 1:02 AM CST (1/5) 12:00 PM CST (1/5)
Length of Visible Light 10h 05m
Length of Day
9h 00m
Last Quarter, 44% of the Moon is Illuminated
Jan 5
Last Quarter
Jan 11
New
Jan 18
First Quarter
Jan 26
Full
Feb 3
Last Quarter

Hourly Weather History & Observations

Time (CST) Temp. Windchill Dew Point Humidity Pressure Visibility Wind Dir Wind Speed Gust Speed Precip Events Conditions
12:15 AM 6.8 °F - 6.8 °F 100% 30.04 in 10.0 mi Calm Calm - N/A   Clear
12:35 AM 10.4 °F -4.8 °F 10.4 °F 100% 30.02 in 10.0 mi South 12.7 mph - N/A   Clear
12:55 AM 12.2 °F 1.7 °F 6.8 °F 79% 30.01 in 10.0 mi SSE 6.9 mph - N/A   Clear
1:15 AM 6.8 °F -2.0 °F -5.8 °F 56% 30.01 in 10.0 mi ESE 4.6 mph - N/A   Clear
1:35 AM 10.4 °F 2.2 °F 6.8 °F 85% 30.00 in 10.0 mi SSE 4.6 mph - N/A   Clear
1:55 AM 6.8 °F - 3.2 °F 85% 30.01 in 10.0 mi Calm Calm - N/A   Clear
2:15 AM 5.0 °F - 1.4 °F 85% 29.99 in 10.0 mi Calm Calm - N/A   Clear
2:35 AM 6.8 °F - 1.4 °F 79% 29.98 in 10.0 mi Calm Calm - N/A   Clear
2:55 AM 1.4 °F -9.9 °F -5.8 °F 72% 29.98 in 10.0 mi North 5.8 mph - N/A   Clear
3:15 AM 3.2 °F -4.2 °F 3.2 °F 100% 29.97 in 10.0 mi NNE 3.5 mph - N/A   Clear
3:35 AM 5.0 °F - 3.2 °F 92% 29.97 in 10.0 mi Calm Calm - N/A   Clear
3:55 AM 6.8 °F -3.5 °F 1.4 °F 79% 29.96 in 10.0 mi SE 5.8 mph - N/A   Clear
4:15 AM 6.8 °F - 5.0 °F 92% 29.96 in 10.0 mi Calm Calm - N/A   Clear
4:35 AM 3.2 °F -4.2 °F -2.2 °F 78% 29.95 in 10.0 mi SE 3.5 mph - N/A   Clear
4:55 AM 6.8 °F - 6.8 °F 100% 29.95 in 10.0 mi Calm Calm - N/A   Clear
5:15 AM 3.2 °F - 1.4 °F 92% 29.95 in 10.0 mi Calm Calm - N/A   Clear
5:35 AM 1.4 °F - -4.0 °F 78% 29.94 in 10.0 mi Calm Calm - N/A   Clear
5:55 AM 3.2 °F - 3.2 °F 100% 29.94 in 10.0 mi Calm Calm - N/A   Clear
6:15 AM 3.2 °F - 3.2 °F 100% 29.93 in 10.0 mi Calm Calm - N/A   Clear
6:35 AM 3.2 °F - 3.2 °F 100% 29.94 in 10.0 mi Calm Calm - N/A   Clear
6:55 AM 3.2 °F -7.8 °F 3.2 °F 100% 29.93 in 10.0 mi ESE 5.8 mph - N/A   Clear
7:15 AM 3.2 °F - 1.4 °F 92% 29.94 in 10.0 mi Calm Calm - N/A   Clear
7:35 AM 5.0 °F -2.1 °F 1.4 °F 85% 29.93 in 10.0 mi SE 3.5 mph - N/A   Clear
7:55 AM 5.0 °F - -9.4 °F 52% 29.93 in 8.0 mi Calm Calm - N/A   Clear
8:15 AM 6.8 °F - 6.8 °F 100% 29.93 in 9.0 mi Calm Calm - N/A   Clear
8:35 AM 3.2 °F - 3.2 °F 100% 29.94 in 10.0 mi Calm Calm - N/A   Clear
8:55 AM 3.2 °F -4.2 °F -2.2 °F 78% 29.94 in 10.0 mi SE 3.5 mph - N/A   Clear
9:15 AM 6.8 °F - 3.2 °F 85% 29.94 in 10.0 mi Calm Calm - N/A   Clear
9:55 AM 12.2 °F - 12.2 °F 100% 29.95 in 10.0 mi Calm Calm - N/A   Clear
10:15 AM 15.8 °F 8.6 °F 15.8 °F 100% 29.96 in 10.0 mi SSW 4.6 mph - N/A   Clear
10:55 AM 17.6 °F 10.7 °F 10.4 °F 73% 29.96 in 10.0 mi SW 4.6 mph - N/A   Clear
11:15 AM 19.4 °F 12.8 °F 10.4 °F 68% 29.95 in 10.0 mi SW 4.6 mph - N/A   Clear
11:35 AM 19.4 °F 9.5 °F 12.2 °F 74% 29.94 in 10.0 mi West 8.1 mph - N/A   Clear
11:55 AM 21.2 °F 10.1 °F 15.8 °F 80% 29.93 in 10.0 mi West 10.4 mph - N/A   Clear
12:15 PM 23.0 °F 9.6 °F 17.6 °F 80% 29.93 in 10.0 mi West 16.1 mph - N/A   Clear
12:35 PM 21.2 °F 6.8 °F 17.6 °F 86% 29.92 in 10.0 mi West 17.3 mph - N/A   Clear
12:55 PM 21.2 °F 7.3 °F 17.6 °F 86% 29.92 in 10.0 mi West 16.1 mph 23.0 mph N/A   Clear
1:15 PM 21.2 °F 6.8 °F 17.6 °F 86% 29.92 in 10.0 mi West 17.3 mph 21.9 mph N/A   Clear
1:35 PM 21.2 °F 6.0 °F 17.6 °F 86% 29.92 in 4.0 mi WNW 19.6 mph - N/A   Clear
1:55 PM 21.2 °F 5.6 °F 17.6 °F 86% 29.92 in 10.0 mi WNW 20.7 mph - N/A   Mostly Cloudy
2:15 PM 21.2 °F 6.0 °F 15.8 °F 80% 29.91 in 10.0 mi WNW 19.6 mph - N/A   Overcast
2:35 PM 21.2 °F 4.9 °F 17.6 °F 86% 29.92 in 10.0 mi WNW 23.0 mph - N/A   Overcast
2:55 PM 21.2 °F 6.0 °F 17.6 °F 86% 29.92 in 9.0 mi WNW 19.6 mph - N/A   Overcast
3:15 PM 21.2 °F 6.4 °F 17.6 °F 86% 29.93 in 9.0 mi WNW 18.4 mph 26.5 mph N/A   Overcast
3:35 PM 21.2 °F 6.4 °F 17.6 °F 86% 29.93 in 7.0 mi WNW 18.4 mph - N/A   Overcast
3:55 PM 21.2 °F 6.0 °F 17.6 °F 86% 29.94 in 5.0 mi West 19.6 mph - N/A   Overcast
4:15 PM 21.2 °F 5.6 °F 17.6 °F 86% 29.95 in 5.0 mi WNW 20.7 mph - N/A   Overcast
5:15 PM 17.6 °F -0.3 °F 12.2 °F 79% 29.99 in 8.0 mi WNW 24.2 mph 27.6 mph N/A   Overcast
5:35 PM 17.6 °F 1.7 °F 12.2 °F 79% 30.00 in 9.0 mi WNW 18.4 mph - N/A   Overcast
5:55 PM 15.8 °F -0.6 °F 10.4 °F 79% 30.03 in 10.0 mi NW 18.4 mph 26.5 mph N/A   Overcast
6:15 PM 12.2 °F -6.7 °F 10.4 °F 92% 30.04 in 7.0 mi WNW 21.9 mph - N/A   Overcast
6:35 PM 12.2 °F -4.8 °F 10.4 °F 92% 30.06 in 7.0 mi NW 17.3 mph 25.3 mph N/A   Overcast
6:55 PM 12.2 °F -4.8 °F 10.4 °F 92% 30.06 in 10.0 mi NW 17.3 mph 25.3 mph N/A   Overcast
7:15 PM 15.8 °F -0.2 °F 12.2 °F 86% 30.06 in 10.0 mi NW 17.3 mph - N/A   Overcast
7:55 PM 15.8 °F 0.3 °F 12.2 °F 86% 30.07 in 10.0 mi WNW 16.1 mph - N/A   Overcast
8:15 PM 17.6 °F 1.3 °F 12.2 °F 79% 30.08 in 10.0 mi WNW 19.6 mph - N/A   Mostly Cloudy
8:35 PM 15.8 °F 0.3 °F 12.2 °F 86% 30.09 in 10.0 mi WNW 16.1 mph - N/A   Partly Cloudy
8:55 PM 15.8 °F -1.1 °F 10.4 °F 79% 30.10 in 10.0 mi WNW 19.6 mph 23.0 mph N/A   Clear
9:15 PM 15.8 °F -1.5 °F 10.4 °F 79% 30.11 in 10.0 mi NW 20.7 mph 25.3 mph N/A   Clear
9:35 PM 14.0 °F -2.0 °F 10.4 °F 86% 30.12 in 10.0 mi NW 16.1 mph - N/A   Clear
9:55 PM 12.2 °F -4.3 °F 10.4 °F 92% 30.12 in 10.0 mi NW 16.1 mph - N/A   Clear
10:15 PM 12.2 °F -3.7 °F 8.6 °F 85% 30.12 in 10.0 mi NW 15.0 mph - N/A   Clear
10:35 PM 12.2 °F -2.5 °F 10.4 °F 92% 30.12 in 10.0 mi NW 12.7 mph - N/A   Clear
10:55 PM 12.2 °F -1.8 °F 8.6 °F 85% 30.13 in 10.0 mi NW 11.5 mph - N/A   Clear
11:15 PM 10.4 °F -2.4 °F 8.6 °F 92% 30.14 in 10.0 mi NW 9.2 mph - N/A   Clear
11:35 PM 10.4 °F -2.4 °F 6.8 °F 85% 30.14 in 10.0 mi West 9.2 mph - N/A   Clear
11:55 PM 10.4 °F -3.3 °F 6.8 °F 85% 30.13 in 10.0 mi West 10.4 mph - N/A   Partly Cloudy